This is the latest recevied weather packets stored in our database for station/object W4GAP. If no packets are shown the sender has not sent any weather packets the latest 1 day(s).
| Time | Temp. | Humidity | Pressure | Rain* | Wind** | Luminosity | Snow |
|---|---|---|---|---|---|---|---|
| 1778081394 | 20.56° C | 81% | 1013.1 hPa | 0 mm | - | 38 W/m² | - |
| 1778080486 | 20.56° C | 80% | 1012.7 hPa | 0 mm | - | 14 W/m² | - |
| 1778079577 | 21.11° C | 76% | 1012.9 hPa | 0 mm | - | 32 W/m² | - |
| 1778079273 | 20.56° C | 77% | 1012.9 hPa | 0 mm | - | 47 W/m² | - |
| 1778077156 | 21.11° C | 75% | 1013 hPa | 0 mm | - | 31 W/m² | - |
| 1778076854 | 21.11° C | 75% | 1012.7 hPa | 0 mm | - | 39 W/m² | - |
| 1778076552 | 21.11° C | 75% | 1012.4 hPa | 0 mm | - | 55 W/m² | - |
| 1778074125 | 20.56° C | 79% | 1011.7 hPa | 0 mm | - | 55 W/m² | - |
| 1778073822 | 20.56° C | 79% | 1011.8 hPa | 0 mm | - | 55 W/m² | - |
| 1778072914 | 20° C | 81% | 1011.6 hPa | 0 mm | - | 46 W/m² | - |
| 1778072610 | 20° C | 81% | 1011.8 hPa | 0 mm | - | 42 W/m² | - |
| 1778072308 | 20° C | 82% | 1011.9 hPa | 0 mm | - | 34 W/m² | - |
| 1778072006 | 20° C | 81% | 1011.8 hPa | 0 mm | - | 32 W/m² | - |
| 1778071401 | 19.44° C | 82% | 1011.6 hPa | 0 mm | - | 21 W/m² | - |
| 1778070797 | 19.44° C | 82% | 1011.8 hPa | 0 mm | - | 19 W/m² | - |
| 1778069889 | 19.44° C | 81% | 1011.7 hPa | 0 mm | - | 8 W/m² | - |
| 1778068376 | 19.44° C | 82% | 1011.6 hPa | 0 mm | - | 6 W/m² | - |
| 1778067771 | 19.44° C | 82% | 1011.3 hPa | 0 mm | - | 6 W/m² | - |
| 1778066560 | 18.89° C | 81% | 1011 hPa | 0 mm | - | 1 W/m² | - |
| 1778065652 | 19.44° C | 82% | 1011.1 hPa | 0 mm | - | 0 W/m² | - |
| 1778065350 | 19.44° C | 81% | 1011.1 hPa | 0 mm | - | 0 W/m² | - |
| 1778064743 | 19.44° C | 81% | 1010.9 hPa | 0 mm | - | 0 W/m² | - |
| 1778062321 | 19.44° C | 79% | 1010.3 hPa | 0 mm | - | 0 W/m² | - |
| 1778061112 | 19.44° C | 78% | 1009.8 hPa | 0 mm | - | 0 W/m² | - |
| 1778060507 | 19.44° C | 77% | 1010 hPa | 0 mm | - | 0 W/m² | - |
* Rain latest hour (hover to see other rain measurements)
** Current wind speed in m/s (hover to see current wind gust speed)